Pulkovo current weather conditions

sailwx.info

Wind from 220 at 3 knots

Air temperature -2.0° C
Visibility: greater than 5.4 NM
Dewpoint -4.0° C

Last reported at 2014-Dec-22 11:30 UTC.
Time now 2014-Dec-22 13:30 UTC

Location: N 59°48' E 030°16'.
View on Google Maps.

See reports from other nearby stations

  
Tides and Currents Weather Stations Pressure Air Temp Water Temp Dewpoint Dewpoint Depression Visibility Wind Speed Wind Dir Waves Ship Positions
date/time (UTC)wind fromknots sea level pressurealtimeterstation pressurevisibilityair tempwater tempwave heightnotes
2014-Dec-22 12:30 5.4-2.0
2014-Dec-22 12:00 5.4-2.0
2014-Dec-22 11:30 220 3 5.4-2.0
2014-Dec-22 11:00 5.4-2.0
2014-Dec-22 10:30 220 5 5.4-2.0
2014-Dec-22 10:00 210 5 5.4-2.0
2014-Dec-22 09:30 220 3 5.4-2.0
2014-Dec-22 09:00 240 5 3.2-2.0 Light snow showers.
2014-Dec-22 08:30 240 5 3.2-2.0 Light snow showers.
2014-Dec-22 08:00 240 5 3.2-2.0 Light snow showers.
2014-Dec-22 07:30 250 5 2.7-2.0 Light snow showers.
2014-Dec-22 07:00 250 5 2.2-2.0 Light snow showers.
2014-Dec-22 06:30 240 5 2.2-2.0 Light snow showers.
2014-Dec-22 06:00 250 7 2.7-2.0 Light snow showers.
2014-Dec-22 05:30 260 5 2.7-2.0 Light snow showers.
2014-Dec-22 05:00 250 7 3.8-2.0 Light snow showers.
2014-Dec-22 04:30 240 7 3.8-2.0 Light snow showers.
2014-Dec-22 04:00 240 7 3.2-2.0 Light snow showers.
2014-Dec-22 03:30 260 5 5.4-2.0 Light snow showers.
2014-Dec-22 03:00 270 7 5.4-2.0 Light snow showers.
2014-Dec-22 02:30 260 5 3.8-2.0 Light snow showers.
2014-Dec-22 02:00 260 5 0.7-2.0 Snow showers.
2014-Dec-22 01:30 250 5 1.9-2.0 Light snow showers.
2014-Dec-22 01:00 260 5 5.4-2.0 Light snow showers.
2014-Dec-22 00:30 250 7 1.8-2.0 Light snow showers.
2014-Dec-22 00:00 240 7 1.2-2.0 Light snow showers.
2014-Dec-21 23:30 250 9 0.2-2.0 Heavy snow showers.
2014-Dec-21 23:00 260 9 1.5-2.0 Light snow showers.
2014-Dec-21 22:30 260 11 2.7-2.0 Light snow showers.
2014-Dec-21 22:00 270 9 1.1-2.0 Light snow showers.
2014-Dec-21 21:30 270 7 1.2-2.0 Light snow showers.
2014-Dec-21 21:00 290 11 0.8-2.0 Snow showers.
2014-Dec-21 20:30 270 5 0.6-2.0 Snow showers.
2014-Dec-21 20:00 280 9 1.0-2.0 Snow showers.
2014-Dec-21 19:30 280 7 1.1-2.0 Light snow showers.
2014-Dec-21 19:00 270 9 0.8-2.0 Snow showers.
2014-Dec-21 18:30 240 7 1.1-2.0 Light snow showers.
2014-Dec-21 18:00 250 7 0.9-2.0 Snow showers.
2014-Dec-21 17:30 240 9 1.0-2.0 Snow showers.
2014-Dec-21 17:00 220 7 5.4-2.0 Light snow showers.
2014-Dec-21 16:30 240 9 5.4-2.0 Light snow showers.
2014-Dec-21 16:00 240 11 5.4-2.0
2014-Dec-21 15:30 240 9 5.4-2.0
2014-Dec-21 15:00 240 9 5.4-2.0
2014-Dec-21 14:30 270 7 5.4-3.0
2014-Dec-21 14:00 250 9 5.4-2.0
2014-Dec-21 13:30 250 11 5.4-2.0
2014-Dec-21 13:00 260 11 5.4-1.0
2014-Dec-21 12:30 250 9 5.4-0.0
2014-Dec-21 12:00 250 9 5.4-0.0
2014-Dec-21 11:30 240 11 5.4-0.0
2014-Dec-21 11:00 240 9 5.4-0.0
2014-Dec-21 10:30 240 11 5.4-0.0
2014-Dec-21 10:00 240 11 5.4-0.0
2014-Dec-21 09:30 240 13 5.4-0.0 Light snow showers.
2014-Dec-21 09:00 240 11 3.8-0.0 Light snow showers.
2014-Dec-21 08:30 240 9 5.4-0.0 Light rain showers.
2014-Dec-21 08:00 240 9 5.4-0.0
2014-Dec-21 07:30 250 11 5.4-0.0
2014-Dec-21 07:00 260 9 5.4-0.0
2014-Dec-21 06:30 260 9 5.4-0.0 Light snow showers.
2014-Dec-21 06:00 270 11 3.8-0.0 Light snow showers.
2014-Dec-21 05:30 270 9 5.4-0.0
2014-Dec-21 05:00 260 9 5.4-0.0
2014-Dec-21 04:30 260 5 5.4-0.0
2014-Dec-21 04:00 250 5 5.4-0.0
2014-Dec-21 03:30 270 7 0.5-0.0 Snow showers.
2014-Dec-21 03:00 280 9 1.0-0.0 Snow showers.
2014-Dec-21 02:30 250 5 5.4 1.0
2014-Dec-21 02:00 240 7 5.4 1.0
2014-Dec-21 01:30 240 7 5.4 1.0 Light snow.
2014-Dec-21 01:00 250 5 5.4 1.0
2014-Dec-21 00:30 240 5 5.4 1.0
2014-Dec-21 00:00 240 3 5.4 1.0
2014-Dec-20 23:30 250 5 5.4 1.0
2014-Dec-20 23:00 240 5 5.4 1.0
2014-Dec-20 22:30 240 3 5.4 1.0
2014-Dec-20 22:00 250 5 5.4 1.0
2014-Dec-20 21:30 250 7 3.2 1.0 Light rain showers.
2014-Dec-20 21:00 250 5 5.4 2.0 Light rain showers.
2014-Dec-20 20:30 240 5 5.4 2.0
2014-Dec-20 20:00 230 3 5.4 2.0
2014-Dec-20 19:30 230 3 5.4 2.0
2014-Dec-20 19:00 220 3 5.4 2.0
2014-Dec-20 18:30 230 5 gusting 15 5.4 2.0 Light rain showers.
2014-Dec-20 18:00 210 9 4.3 2.0 Light rain showers.
2014-Dec-20 17:30 210 9 2.7 2.0 Light rain showers.
2014-Dec-20 17:00 210 7 4.3 2.0 Light rain showers.
2014-Dec-20 16:30 210 9 5.4 2.0 Light rain showers.
2014-Dec-20 16:00 220 5 gusting 15 5.4 2.0
2014-Dec-20 15:30 210 9 5.4 2.0
2014-Dec-20 15:00 210 11 5.4 3.0
2014-Dec-20 14:30 210 9 5.4 2.0
2014-Dec-20 14:00 210 9 5.4 2.0 Light rain showers.
2014-Dec-20 13:30 210 11 5.4 2.0
2014-Dec-20 13:00 210 11 5.4 2.0